changsha , China , ASIA

  • Thursday
    March 30

    Moderate rain  Light rain

    64 °F  54 °F

    Northwest  Northwest

    3~4L   3~4L 

  • Friday
    March 31

    Overcast  Cloudy

    64 °F  46 °F

    North  North

    3~4L    

  • Saturday
    April 1

    Sunny  Sunny

    70 °F  48 °F

    North  North

        

  • Sunday
    April 2

    Sunny  Sunny

    72 °F  54 °F

    Southeast  Southeast

        

  • Monday
    April 3

    Sunny  Sunny

    72 °F  57 °F

    Southeast  Southeast

        

  • Tuesday
    April 4

    Shower  Shower

    72 °F  64 °F

    South  South

        

  • Wednesday
    April 5

    Shower  Shower

    75 °F  64 °F

    Southwest  Southwest

        

Date   Weather Temperature Humidity Total_rain Visibility Wind
11:00 Heavy rain 64°F 98.2% 16.4mm 0.8km Northeast  1.2m/s
14:00 Moderate rain 63°F 98.4% 6.5mm 0.8km Northwest  2.1m/s
17:00 Light rain 63°F 97.6% 1.4mm 8km Northwest  2.9m/s
20:00 Light rain 59°F 95.4% 0.1mm 4km Northwest  4.2m/s
23:00 Light rain 57°F 94.7% 0.3mm 4km Northwest  4.2m/s
02:00 Overcast 56°F 94.6% 0mm 0.4km Northwest  4.4m/s
05:00 Overcast 55°F 94.2% 0mm 4km Northwest  3.3m/s
08:00 Overcast 54°F 93.7% 0mm 8km Northwest  3.9m/s
11:00 Overcast 64°F 74.8% 0mm 4km Northeast  2.8m/s
14:00 Overcast 60°F 81.1% 0mm 0.8km Northeast  2.5m/s
17:00 Overcast 57°F 80.2% 0mm 12km Northeast  2.5m/s
20:00 Overcast 56°F 86.2% 0mm 12km Northeast  1.3m/s
23:00 Cloudy 55°F 88.1% 0mm 0.8km Northeast  1.8m/s
02:00 Cloudy 54°F 90.6% 0mm 4km Northeast  1.2m/s
05:00 Cloudy 53°F 92.9% 0mm 8km Northeast  0.6m/s
08:00 Cloudy 47°F 91% 0mm 8km Northeast  0.5m/s
11:00 Sunny 58°F 56.9% 0mm 4km Northeast  2.0m/s
14:00 Sunny 66°F 64.7% 0mm 12km Northeast  2.2m/s
17:00 Sunny 69°F 68.9% 0mm 12km Northeast  2.3m/s
20:00 Sunny 66°F 80.5% 0mm 12km Northeast  1.3m/s
23:00 Sunny 53°F 80.6% 0mm 12km Northeast  1.4m/s
02:00 Sunny 50°F 85.1% 0mm 12km Southeast  0.9m/s
05:00 Sunny 49°F 90.2% 0mm 12km Southeast  0.9m/s
08:00 Sunny 50°F 87% 0mm 12km Southeast  0.8m/s
11:00 Sunny 65°F 50.1% 0mm 8km Southeast  2.2m/s
14:00 Sunny 71°F 60.7% 0mm 12km Southeast  2.8m/s
17:00 Sunny 71°F 62.2% 0mm 12km Southeast  1.5m/s
20:00 Sunny 60°F 83.7% 0mm 12km Southeast  1.0m/s
23:00 Sunny 57°F 87.5% 0mm 12km Southeast  0.4m/s
02:00 Sunny 55°F 91.5% 0mm 0.8km Southeast  1.2m/s
05:00 Sunny 54°F 91.4% 0mm 12km Southeast  1.1m/s
08:00 Sunny 57°F 82.9% 0mm 12km Southeast  1.2m/s
11:00 Sunny 66°F 64% 0mm 12km Southeast  2.5m/s
14:00 Sunny 71°F 73.8% 0mm 12km Southeast  2.9m/s
17:00 Sunny 68°F 77.7% 0mm 8km Southeast  2.5m/s
20:00 Sunny 65°F 82% 0mm 12km Southeast  2.5m/s
23:00 Sunny 58°F 86.2% 0mm 4km Southeast  2.0m/s
02:00 Sunny 61°F 92.2% 0mm 0.8km Southeast  1.7m/s
05:00 Sunny 60°F 83.2% 0mm 4km Southeast  1.6m/s
08:00 Sunny 62°F 68.4% 0mm 4km Southeast  3.0m/s
11:00 Overcast 66°F 70.5% 0mm 4km Southeast  4.2m/s
14:00 Shower 71°F 73.5% 0.3mm 8km Southeast  3.0m/s
17:00 Cloudy 71°F 77.5% 0mm 8km Southeast  2.6m/s
20:00 Cloudy 68°F 80% 0mm 4km Southeast  2.1m/s
23:00 Cloudy 67°F 82.6% 0mm 8km Southeast  2.8m/s
02:00 Shower 66°F 89.8% 0.4mm 8km Southeast  2.5m/s
05:00 Shower 65°F 83.7% 0.2mm 0.4km Southeast  2.4m/s
08:00 Shower 65°F 69.9% 0.1mm 8km Southwest  1.7m/s
11:00 Shower 72°F 69.1% 1.9mm 12km Southeast  1.9m/s
14:00 Overcast 75°F 80.6% 0mm 4km Southwest  4.9m/s
17:00 Shower 74°F 91.4% 0.5mm 4km Southeast  1.9m/s
20:00 Shower 70°F 92.1% 0.7mm 4km Southwest  3.5m/s
23:00 Shower 69°F 99.2% 1mm 8km Southeast  3.0m/s
02:00 Shower 66°F 99.6% 0.2mm 8km Southeast  2.3m/s
05:00 Shower 65°F 98.6% 0.2mm 0.8km Southeast  2.3m/s